This demonstration page uses our WeatherBlox Daily Observations layout. Learn more.

Left ArrowRight Arrow

31.31129, -92.44514

Hourly Observations for December 4, 2021

Temp ( °F °C ) Dew Point ( °F °C ) Humidity (%) Winds ( mph kmh ) Pressure ( in mb ) Visibility ( mi km ) Precip ( " mm )
12:53 am 00:53 Clear 65 18.3 60 15.6 84 84 S 6 9 30.05 1018 10 16 0.00 0.00
1:53 am 01:53 Clear 63 17.2 60 15.6 90 90 S 5 7 30.05 1018 10 16 0.00 0.00
2:19 am 02:19 Mostly Cloudy 62 16.7 59 15 90 90 Calm 30.05 1018 10 16 0.00 0.00
2:53 am 02:53 Mostly Cloudy 62 16.7 59 15 90 90 SSE 5 7 30.04 1017 9 14 0.00 0.00
3:04 am 03:04 Partly Cloudy 62 16.7 60 15.6 93 93 S 5 7 30.04 1017 10 16 0.00 0.00
3:15 am 03:15 Mostly Cloudy 61 16.1 59 15 93 93 Calm 30.05 1018 8 13 0.00 0.00
3:35 am 03:35 Cloudy 62 16.7 59 15 90 90 Calm 30.05 1018 9 14 0.00 0.00
3:53 am 03:53 Cloudy 63 17.2 60 15.6 90 90 Calm 30.06 1018 10 16 0.00 0.00
4:01 am 04:01 Cloudy 63 17.2 60 15.6 90 90 Calm 30.05 1018 9 14 0.00 0.00
4:09 am 04:09 Cloudy 63 17.2 60 15.6 90 90 Calm 30.05 1018 10 16 0.00 0.00
4:30 am 04:30 Cloudy 63 17.2 61 16.1 93 93 Calm 30.06 1018 9 14 0.00 0.00
4:53 am 04:53 Cloudy 63 17.2 60 15.6 90 90 Calm 30.07 1018 9 14 0.00 0.00
5:53 am 05:53 Cloudy with Mist and Fog 63 17.2 60 15.6 90 90 SSE 3 6 30.08 1019 5 8 0.00 0.00
6:53 am 06:53 Cloudy 63 17.2 61 16.1 93 93 SE 3 6 30.10 1019 7 11 0.00 0.00
7:28 am 07:28 Cloudy 64 17.8 61 16.1 90 90 Calm 30.12 1020 7 11 0.00 0.00
7:36 am 07:36 Cloudy with Mist and Fog 64 17.8 61 16.1 90 90 Calm 30.12 1020 5 8 0.00 0.00
7:50 am 07:50 Cloudy with Mist and Fog 64 18 61 16 88 88 NNE 3 6 30.12 1020 2 3 0.00 0.00
7:53 am 07:53 Cloudy with Mist and Fog 64 17.8 61 16.1 90 90 Calm 30.14 1021 2 3 0.00 0.00
8:10 am 08:10 Cloudy with Mist and Fog 64 17.8 62 16.7 93 93 SSE 3 6 30.13 1020 3 4 0.00 0.00
8:53 am 08:53 Cloudy with Mist and Fog 65 18.3 63 17.2 93 93 SSE 3 6 30.15 1021 3 4 0.00 0.00
9:00 am 09:00 Cloudy with Mist and Fog 65 18.3 63 17.2 93 93 SSE 3 6 30.14 1021 4 6 0.00 0.00
9:23 am 09:23 Cloudy with Mist and Fog 65 18.3 62 16.7 90 90 S 6 9 30.15 1021 4 6 0.00 0.00
9:53 am 09:53 Cloudy with Mist and Fog 67 19.4 63 17.2 87 87 S 6 9 30.16 1021 6 10 0.00 0.00
10:04 am 10:04 Cloudy 67 19.4 63 17.2 87 87 SSE 5 7 30.15 1021 8 13 0.00 0.00
10:53 am 10:53 Cloudy 72 22.2 65 18.3 79 79 E 5 7 30.14 1021 10 16 0.00 0.00
11:00 am 11:00 Mostly Cloudy 72 22.2 65 18.3 79 79 VRB 3 6 30.14 1021 10 16 0.00 0.00
11:53 am 11:53 Mostly Sunny 76 24.4 65 18.3 69 69 VRB 3 6 30.11 1020 10 16 0.00 0.00
12:19 pm 12:19 Mostly Cloudy 78 25.6 64 17.8 62 62 VRB 3 6 30.10 1019 10 16 0.00 0.00
12:53 pm 12:53 Mostly Cloudy 78 25.6 65 18.3 64 64 S 5 7 30.09 1019 10 16 0.00 0.00
1:33 pm 13:33 Partly Cloudy 81 27.2 65 18.3 58 58 NE 5 7 30.07 1018 10 16 0.00 0.00
1:53 pm 13:53 Mostly Cloudy 81 27.2 65 18.3 58 58 NE 5 7 30.07 1018 10 16 0.00 0.00
2:53 pm 14:53 Partly Cloudy 80 26.7 63 17.2 56 56 VRB 3 6 30.06 1018 10 16 0.00 0.00
3:53 pm 15:53 Sunny 76 24.4 64 17.8 67 67 SSE 5 7 30.06 1018 10 16 0.00 0.00
4:53 pm 16:53 Sunny 73 22.8 63 17.2 71 71 SE 6 9 30.06 1018 10 16 0.00 0.00
5:53 pm 17:53 Clear 71 21.7 62 16.7 73 73 S 3 6 30.06 1018 10 16 0.00 0.00
6:53 pm 18:53 Clear 70 21.1 62 16.7 76 76 SE 3 6 30.07 1018 10 16 0.00 0.00
7:53 pm 19:53 Clear 66 18.9 62 16.7 87 87 SSE 5 7 30.08 1019 10 16 0.00 0.00
8:53 pm 20:53 Clear 66 18.9 62 16.7 87 87 SE 5 7 30.09 1019 10 16 0.00 0.00
9:53 pm 21:53 Clear 64 17.8 61 16.1 90 90 SE 3 6 30.09 1019 10 16 0.00 0.00
10:53 pm 22:53 Clear with Mist and Fog 64 17.8 62 16.7 93 93 S 3 6 30.09 1019 6 10 0.00 0.00
11:53 pm 23:53 Clear with Mist and Fog 62 16.7 60 15.6 93 93 Calm 30.08 1019 6 10 0.00 0.00

Powered by AerisWeather